Location: Poughquag
(41.6090°N, 73.6820°W)
Time: 12:48:27
(UTC-04:00)

Vanguard 1 - Pass Details

Date: 07 June 2020
Orbit: 650 x 3833 km, 34.2° (Epoch: 07 July)

Event Time Altitude Azimuth Distance (km) Brightness Sun altitude
Rises 10:34:32 0° 282° (WNW) 7,140 14.1 55.4°
Reaches altitude 10° 10:39:15 10° 277° (W) 6,418 14.0 56.3°
Maximum altitude 10:59:12 44° 215° (SW) 4,690 14.1 59.6°
Drops below altitude 10° 11:18:38 10° 151° (SSE) 6,205 14.7 62.7°
Sets 11:23:09 0° 145° (SE) 6,891 14.8 63.3°
